Daneborg

KL  EN  DA
ASIAQ
Weather Now GREENLAND SURVEY
Updated [WGT/WGST] Temperature [°C] Wind [m/s] Air pressure [hPa] Relative humidity [%] Precipitation [mm]
Present Wind chill Speed Max
03.05 19:00-4,3-11,88,0 ⇓11,0101669n/a
03.05 18:00-4,0-11,68,0 ⇓10,0101669n/a
03.05 17:00-4,0-11,48,0 ⇓10,0101567n/a
03.05 16:00-3,7-11,59,0 ⇓11,0101564n/a
03.05 15:00-3,6-10,98,0 ⇓10,0101561n/a
03.05 14:00-3,2-9,97,0 ⇓10,0101457n/a
03.05 13:00-3,7-10,36,0 ⇓8,0101460n/a
03.05 12:00-4,2-10,25,0 ⇓7,0101462n/a
03.05 11:00-4,3-10,45,0 ⇓8,0101460n/a
03.05 10:00-4,7-10,95,0 ⇓7,0101357n/a
03.05 09:00-6,90,01,0 ⇙2,0101357n/a
03.05 08:00-5,90,01,0 ⇓2,0101349n/a
03.05 07:00-6,60,01,0 ⇙2,0101350n/a
03.05 06:00-7,20,01,0 ⇖3,0101250n/a
03.05 05:00-8,5-11,42,0 ⇙3,0101255n/a
03.05 04:00-11,4-14,82,0 ⇘3,0101263n/a
03.05 03:00-9,0-12,02,0 ⇓3,0101258n/a
03.05 02:00-9,2-12,22,0 ⇙3,0101254n/a
03.05 01:00-9,7-12,82,0 ⇓2,0101261n/a
03.05 00:00-9,3-13,42,0 ⇓3,0101161n/a
02.05 23:00-9,2-13,32,0 ⇓3,0101161n/a
02.05 22:00-9,2-12,22,0 ⇓3,0101164n/a
02.05 21:00-6,0-10,33,0 ⇓3,0101151n/a
02.05 20:00-6,2-8,82,0 ⇓2,0101145n/a
02.05 19:00-6,80,01,0 ⇓1,0101049n/a
Position: (74.307500,-20.216944)

[Back]